Date,TemperatureHighF,TemperatureAvgF,TemperatureLowF,DewpointHighF,DewpointAvgF,DewpointLowF,HumidityHigh,HumidityAvg,HumidityLow,PressureMaxIn,PressureMinIn,WindSpeedMaxMPH,WindSpeedAvgMPH,GustSpeedMaxMPH,PrecipitationSumIn
2013-1-1,37,34,27,36,32,24,96,92,85,30.23,30.06,8,2,10,0.01
2013-1-2,34,27,22,23,21,19,91,79,58,30.32,30.21,4,1,10,0.00
2013-1-3,40,27,18,29,22,16,94,83,56,30.47,30.28,7,1,10,0.00
2013-1-4,43,30,19,29,24,17,94,80,51,30.50,30.42,5,1,11,0.00
2013-1-5,46,34,22,32,27,20,94,76,55,30.44,30.26,6,1,8,0.00
2013-1-6,43,36,22,36,30,20,94,80,67,30.43,30.19,7,2,14,0.00
2013-1-7,43,29,18,30,24,16,94,82,56,30.51,30.28,4,0,6,0.00
2013-1-8,57,40,24,38,32,23,94,74,45,30.35,30.23,6,1,10,0.00
2013-1-9,52,50,47,46,43,38,85,79,71,30.45,30.26,5,1,7,0.01
2013-1-10,65,56,47,61,54,44,96,92,85,30.43,29.93,8,2,14,0.37
2013-1-11,67,60,52,62,54,49,95,81,58,30.02,29.86,9,3,17,0.85
2013-1-12,70,65,58,66,62,56,97,91,81,29.98,29.76,9,3,15,0.01
2013-1-13,69,44,28,63,41,24,97,91,83,30.29,29.75,15,4,16,2.41
2013-1-14,29,26,23,24,22,20,90,84,75,30.47,30.30,12,3,13,0.00
2013-1-15,30,27,23,29,24,21,93,89,84,30.34,30.09,10,3,14,0.00
2013-1-16,32,31,30,29,28,28,93,89,84,30.18,30.07,5,0,8,0.00
2013-1-17,46,36,29,36,30,25,93,78,65,30.49,30.14,10,3,20,0.02
2013-1-18,49,34,22,30,26,20,94,73,45,30.61,30.36,10,1,10,0.00
2013-1-19,57,46,33,35,31,28,82,58,36,30.35,30.11,11,3,17,0.00
2013-1-20,45,38,28,33,25,19,94,62,35,30.30,30.14,12,2,13,0.00
2013-1-21,34,27,22,20,15,8,80,60,37,30.37,30.23,13,2,16,0.00
2013-1-22,26,22,16,9,4,-1,60,46,33,30.50,30.36,5,2,11,0.00
2013-1-23,48,31,16,31,20,7,89,65,44,30.43,30.17,8,1,8,0.00
2013-1-24,34,28,21,29,13,6,84,54,38,30.57,30.26,12,3,16,0.00
2013-1-25,33,29,24,30,24,8,96,84,41,30.32,30.14,5,1,8,0.01
2013-1-26,43,32,23,32,27,22,96,82,59,30.39,30.28,7,1,8,0.03
2013-1-27,47,37,26,43,34,25,94,89,84,30.37,30.17,6,1,10,0.06
2013-1-28,61,54,44,56,50,40,93,85,70,30.18,30.08,8,2,14,0.37
2013-1-29,71,63,56,63,58,52,92,86,77,30.08,29.50,17,4,22,0.00
2013-1-30,71,49,34,64,44,24,97,83,63,29.91,29.43,16,4,25,1.15
2013-1-31,43,34,22,33,24,16,94,67,52,30.31,29.93,11,4,16,0.01
2013-2-1,26,20,13,18,11,5,77,67,56,30.57,30.32,9,2,15,0.00
2013-2-2,41,33,25,33,26,18,91,76,57,30.37,30.10,6,2,12,0.00
2013-2-3,41,34,24,33,28,21,96,81,58,30.21,30.02,13,2,18,0.01
2013-2-4,54,39,25,41,32,22,89,78,40,30.15,29.92,11,1,11,0.01
2013-2-5,58,45,35,43,38,33,93,79,44,30.09,29.93,5,1,9,0.00
2013-2-6,52,41,28,35,32,27,95,72,44,30.27,30.10,7,1,11,0.00
2013-2-7,67,53,40,50,42,32,91,66,50,30.12,29.87,8,1,13,0.08
2013-2-8,52,40,33,50,35,28,95,82,72,30.38,29.89,15,5,19,0.36
2013-2-9,50,40,31,34,31,26,83,70,52,30.41,30.12,7,1,10,0.00
2013-2-10,58,52,43,55,45,33,93,78,53,30.13,29.78,13,3,24,0.41
2013-2-11,57,47,32,54,35,29,91,65,42,30.17,29.88,8,2,10,0.00
2013-2-12,50,41,26,34,30,25,96,69,47,30.18,29.87,5,1,8,0.00
2013-2-13,44,38,33,36,34,32,95,85,63,30.00,29.79,6,2,14,0.11
2013-2-14,59,43,31,40,36,30,96,77,45,30.02,29.95,12,2,13,0.01
2013-2-15,48,39,25,37,30,20,93,71,50,30.23,30.02,14,2,20,0.00
2013-2-16,36,27,19,24,17,8,93,68,33,30.24,30.17,8,2,16,0.00
2013-2-17,46,31,16,24,19,13,91,64,35,30.31,30.15,6,1,8,0.00
2013-2-18,63,49,35,46,34,21,92,60,33,30.15,29.77,15,5,27,0.46
2013-2-19,49,38,28,47,26,18,91,65,38,30.28,29.82,10,3,14,0.00
2013-2-20,32,27,21,19,16,13,75,64,48,30.40,30.29,8,1,10,0.00
2013-2-21,39,32,24,37,25,17,95,74,47,30.31,29.88,9,2,15,0.99
2013-2-22,54,43,34,43,39,32,97,85,65,30.06,29.86,10,2,14,0.02
2013-2-23,46,37,30,32,28,25,94,72,53,30.07,29.96,6,1,7,0.00
2013-2-24,53,37,24,30,26,22,93,67,38,30.18,30.03,5,1,8,0.00
2013-2-25,59,48,35,42,30,26,72,53,34,30.05,29.54,10,2,16,0.00
2013-2-26,51,46,39,49,43,35,96,87,70,29.68,29.37,8,3,19,0.82
2013-2-27,39,37,34,36,33,30,90,83,74,29.91,29.68,11,3,15,0.00
2013-2-28,39,35,33,32,30,27,90,81,73,30.09,29.89,9,2,11,0.01
2013-3-1,38,34,31,34,32,30,95,92,85,30.11,30.04,8,1,8,0.13
2013-3-2,33,31,29,30,27,23,95,86,75,30.21,30.07,8,3,14,0.01
2013-3-3,41,32,21,25,19,15,87,61,37,30.22,30.12,6,1,11,0.01
2013-3-4,58,46,34,40,28,20,72,51,37,30.15,29.83,15,2,15,0.00
2013-3-5,51,41,32,50,38,23,97,87,66,30.03,29.72,18,3,24,0.47
2013-3-6,38,34,32,29,27,25,79,74,68,30.35,30.02,12,5,19,0.00
2013-3-7,43,34,28,30,27,25,91,76,61,30.43,30.34,7,2,10,0.00
2013-3-8,56,40,25,33,29,23,94,68,34,30.47,30.29,6,1,11,0.00
2013-3-9,64,51,38,39,35,31,79,56,36,30.29,30.00,5,1,8,0.00
2013-3-10,70,60,51,55,44,38,96,58,38,30.00,29.73,14,3,19,0.73
2013-3-11,56,44,38,54,40,30,96,83,68,30.01,29.75,11,3,13,1.51
2013-3-12,52,41,29,32,29,25,92,64,36,30.17,30.01,6,2,12,0.00
2013-3-13,44,36,26,31,24,20,84,62,45,30.44,30.17,9,4,19,0.00
2013-3-14,45,32,20,35,26,19,94,79,45,30.45,30.20,8,1,8,0.02
2013-3-15,74,54,30,51,42,29,96,67,41,30.20,29.81,7,2,13,0.01
2013-3-16,72,62,46,54,48,40,80,62,51,29.97,29.76,13,5,17,0.00
2013-3-17,46,43,42,42,41,39,95,91,80,30.02,29.77,12,3,15,0.48
2013-3-18,56,47,35,51,44,34,97,90,82,30.00,29.68,15,2,22,1.07
2013-3-19,53,41,31,34,25,11,97,60,20,30.22,30.01,10,2,16,0.00
2013-3-20,46,35,25,33,24,16,94,66,43,30.20,30.09,11,3,17,0.00
2013-3-21,41,30,18,20,17,14,91,62,37,30.13,30.00,7,1,13,0.00
2013-3-22,43,37,31,27,23,19,62,56,47,30.07,30.00,3,0,7,0.00
2013-3-23,57,48,40,45,35,27,92,62,48,30.02,29.74,9,1,13,0.14
2013-3-24,48,41,34,44,39,30,96,90,80,29.76,29.43,8,3,19,0.44
2013-3-25,37,34,31,31,30,28,94,86,75,30.16,29.72,12,3,21,0.02
2013-3-26,41,35,28,30,28,25,94,78,60,30.37,30.16,9,2,13,0.01
2013-3-27,50,36,22,31,26,20,95,70,40,30.43,30.33,6,1,12,0.00
2013-3-28,59,47,34,40,33,28,82,61,43,30.41,30.28,6,1,9,0.00
2013-3-29,56,49,44,49,43,34,94,82,58,30.31,30.18,3,1,8,0.20
2013-3-30,55,49,46,50,46,43,97,89,73,30.22,29.90,5,1,8,0.42
2013-3-31,61,52,43,51,49,42,97,88,63,29.96,29.88,5,1,8,0.04
2013-4-1,56,47,39,44,36,26,97,68,46,30.19,29.90,9,2,14,0.00
2013-4-2,48,42,34,27,23,18,71,50,32,30.31,30.19,6,1,11,0.00
2013-4-3,55,44,31,25,23,20,73,45,27,30.35,30.21,10,2,18,0.00
2013-4-4,48,45,41,45,35,22,94,71,41,30.21,30.02,8,1,10,0.11
2013-4-5,69,52,34,43,37,31,97,65,28,30.14,30.04,8,1,12,0.01
2013-4-6,75,58,41,46,41,38,90,56,29,30.12,29.91,11,2,16,0.00
2013-4-7,74,65,55,55,50,40,74,58,39,30.01,29.93,10,2,16,0.00
2013-4-8,78,66,56,58,54,49,84,67,47,29.97,29.87,14,3,18,0.00
2013-4-9,78,69,59,65,61,54,88,76,64,30.05,29.93,14,2,17,0.00
2013-4-10,84,75,66,65,62,58,84,66,49,29.97,29.71,12,4,17,0.00
2013-4-11,74,61,50,63,58,47,97,90,59,29.74,29.55,6,1,11,2.17
2013-4-12,61,49,36,47,40,35,96,71,49,30.02,29.70,11,2,18,0.00
2013-4-13,66,51,34,45,39,32,95,68,38,30.12,29.98,5,1,8,0.00
2013-4-14,75,60,46,52,46,41,86,63,36,29.99,29.82,11,3,21,0.00
2013-4-15,81,68,52,62,57,50,94,71,49,29.96,29.85,9,2,12,0.00
2013-4-16,81,72,64,70,66,60,96,81,68,30.07,29.93,9,2,13,0.32
2013-4-17,87,75,64,71,66,63,99,76,47,30.09,29.86,10,2,14,0.00
2013-4-18,82,74,52,67,64,51,95,72,54,29.86,29.55,13,4,22,0.91
2013-4-19,52,44,37,51,36,33,95,76,59,30.12,29.62,7,2,16,0.39
2013-4-20,61,47,30,40,34,29,97,65,35,30.34,30.12,8,1,11,0.00
2013-4-21,67,53,40,42,35,30,72,52,27,30.43,30.26,8,1,10,0.00
2013-4-22,74,59,42,50,44,36,84,60,37,30.28,30.07,7,1,12,0.00
2013-4-23,75,64,53,57,53,46,83,67,53,30.10,29.88,7,2,18,0.00
2013-4-24,66,48,35,59,44,34,96,84,68,30.31,29.83,12,2,13,0.98
2013-4-25,65,48,30,44,38,30,98,73,40,30.39,30.29,6,1,9,0.01
2013-4-26,56,50,42,51,44,38,95,83,55,30.46,30.29,3,0,8,0.38
2013-4-27,60,55,49,58,53,48,97,95,90,30.34,29.90,7,1,11,2.20
2013-4-28,61,58,50,58,55,50,98,90,79,29.96,29.87,5,1,9,0.05
2013-4-29,75,61,51,57,54,50,98,79,46,30.02,29.90,4,1,9,0.00
2013-4-30,82,66,50,61,56,49,98,72,40,30.01,29.91,5,1,9,0.00
2013-5-1,83,69,54,66,60,53,95,74,44,30.10,30.00,7,1,12,0.00
2013-5-2,80,69,58,62,60,57,96,75,50,30.14,30.02,5,1,9,0.00
2013-5-3,76,66,46,62,57,44,95,76,53,30.02,29.78,12,3,18,0.14
2013-5-4,51,46,43,45,43,41,96,89,71,29.98,29.87,4,1,7,0.92
2013-5-5,59,52,45,53,49,43,96,91,77,29.95,29.82,8,1,8,0.09
2013-5-6,70,58,52,58,53,50,97,87,54,29.92,29.79,7,2,10,0.45
2013-5-7,73,60,51,63,56,50,98,87,59,30.00,29.91,5,1,7,0.04
2013-5-8,81,65,52,67,58,52,99,79,48,30.04,29.94,5,1,8,0.00
2013-5-9,80,70,56,67,61,55,98,76,53,30.04,29.93,6,1,14,0.02
2013-5-10,73,66,62,67,63,61,97,91,79,29.96,29.84,8,1,12,1.45
2013-5-11,70,60,53,62,54,42,97,81,55,30.09,29.92,9,2,13,0.00
2013-5-12,63,52,38,42,37,28,96,62,32,30.20,30.10,7,1,12,0.00
2013-5-13,70,54,37,46,40,35,98,67,29,30.27,30.14,4,0,9,0.00
2013-5-14,86,69,48,62,55,43,92,62,40,30.15,29.92,8,2,16,0.00
2013-5-15,85,73,62,63,56,49,84,59,31,30.04,29.92,9,1,11,0.00
2013-5-16,66,65,64,65,60,56,96,83,71,29.95,29.91,0,0,4,0.24
2013-5-17,70,66,63,67,64,62,98,94,82,30.01,29.93,3,1,8,0.30
2013-5-18,83,72,65,70,67,64,98,85,62,29.98,29.92,8,0,9,0.02
2013-5-19,88,76,66,77,71,65,98,84,62,29.96,29.86,5,1,9,0.05
2013-5-20,86,77,66,73,70,65,98,81,59,29.97,29.84,8,2,12,0.00
2013-5-21,80,71,65,69,66,64,97,86,63,29.96,29.80,7,2,14,0.80
2013-5-22,77,69,62,67,64,61,98,87,65,29.84,29.78,5,1,10,0.05
2013-5-23,73,66,56,62,58,52,98,78,59,30.12,29.84,9,2,15,0.00
2013-5-24,70,58,48,52,49,46,95,73,45,30.34,30.13,7,2,11,0.00
2013-5-25,78,62,45,54,49,44,97,68,35,30.36,30.15,3,1,7,0.00
2013-5-26,83,70,58,63,57,51,85,65,45,30.22,30.08,5,1,8,0.00
2013-5-27,85,73,58,64,61,56,93,68,48,30.10,29.95,8,2,19,0.00
2013-5-28,87,76,66,69,63,61,88,66,45,30.04,29.94,10,2,16,0.00
2013-5-29,88,76,63,70,65,60,94,71,45,30.08,29.95,10,2,16,0.00
2013-5-30,87,79,72,71,68,65,78,70,58,30.06,29.93,12,3,21,0.00
2013-5-31,82,75,70,74,70,67,96,84,75,30.00,29.87,7,2,17,0.86
2013-6-1,77,69,63,70,66,62,97,92,79,29.97,29.77,15,2,15,2.51
2013-6-2,79,70,62,68,64,60,98,83,59,29.95,29.88,7,1,10,0.03
2013-6-3,76,66,58,64,59,56,98,79,53,30.03,29.94,4,1,9,0.00
2013-6-4,83,69,53,63,59,52,97,73,44,30.06,29.95,6,1,7,0.00
2013-6-5,87,75,62,71,66,60,95,75,52,29.97,29.80,5,1,8,0.00
2013-6-6,80,72,65,71,68,64,97,88,67,29.80,29.73,6,1,13,0.91
2013-6-7,80,71,65,70,66,63,98,84,68,29.86,29.74,7,1,10,0.00
2013-6-8,82,70,60,67,62,59,98,78,48,29.99,29.84,4,0,11,0.00
2013-6-9,84,69,60,72,66,59,98,89,61,30.01,29.81,4,1,19,1.33
2013-6-10,83,72,65,73,67,64,98,86,58,29.91,29.81,8,1,11,0.08
2013-6-11,92,77,61,78,70,60,98,79,53,29.99,29.89,4,1,8,0.00
2013-6-12,92,84,73,78,76,71,95,76,61,30.00,29.81,10,2,15,0.00
2013-6-13,85,78,65,75,69,59,91,74,62,29.94,29.77,11,3,15,0.00
2013-6-14,82,70,57,63,59,55,95,70,47,30.04,29.92,7,2,16,0.00
2013-6-15,88,75,60,68,64,59,97,73,41,30.09,29.96,4,1,9,0.00
2013-6-16,87,77,68,74,69,66,95,79,61,30.03,29.92,6,1,10,0.00
2013-6-17,90,76,68,75,71,66,97,86,55,29.95,29.84,6,1,12,1.30
2013-6-18,85,77,68,70,68,65,93,73,55,29.93,29.87,7,1,11,0.33
2013-6-19,88,76,66,71,67,64,96,74,49,30.04,29.92,5,1,9,0.00
2013-6-20,91,78,66,72,67,64,96,71,43,30.12,30.04,4,0,8,0.00
2013-6-21,91,76,67,74,68,65,94,77,53,30.16,30.07,8,1,10,0.00
2013-6-22,90,79,68,74,70,67,96,75,51,30.15,30.03,7,1,10,0.00
2013-6-23,88,79,69,72,69,67,96,74,54,30.11,30.00,9,2,11,0.00
2013-6-24,87,80,74,75,72,70,90,78,63,30.04,30.02,4,0,6,0.02
2013-6-25,91,81,70,79,73,68,96,78,58,30.05,29.89,7,1,11,0.00
2013-6-26,90,81,70,77,74,68,96,80,63,29.94,29.74,9,2,18,0.75
2013-6-27,92,81,70,80,73,68,97,79,49,29.83,29.77,9,2,12,0.00
2013-6-28,88,79,68,74,70,63,96,75,50,29.80,29.63,5,1,12,0.00
2013-6-29,86,73,62,67,64,60,96,75,50,29.68,29.59,6,1,10,0.49
2013-6-30,80,68,60,67,64,59,98,87,64,29.80,29.67,4,1,11,0.00
2013-7-1,76,69,64,69,66,63,97,91,78,29.88,29.76,5,1,9,0.04
2013-7-2,80,71,65,68,65,63,97,83,62,30.01,29.86,8,1,9,0.00
2013-7-3,84,72,59,68,64,58,98,80,53,30.09,30.00,3,0,6,0.01
2013-7-4,75,69,65,70,67,64,98,93,84,30.08,30.01,4,1,8,0.05
2013-7-5,83,72,64,72,68,64,97,88,66,30.09,30.02,4,1,8,0.96
2013-7-6,79,71,66,72,68,64,97,91,74,30.09,30.00,5,1,10,1.30
2013-7-7,89,75,63,74,69,62,98,82,50,30.10,30.01,5,1,7,0.09
2013-7-8,91,77,68,76,71,67,98,83,54,30.13,30.03,4,1,6,0.00
2013-7-9,92,82,70,78,74,69,98,79,56,30.09,29.97,5,1,9,0.00
2013-7-10,92,82,73,81,75,70,92,79,67,29.99,29.83,3,1,8,0.00
2013-7-11,84,75,68,76,69,62,97,82,57,29.96,29.90,10,2,14,0.00
2013-7-12,82,73,65,64,61,57,87,67,45,30.04,29.96,10,2,15,0.00
2013-7-13,84,72,61,66,63,58,94,74,46,30.04,29.97,4,1,9,0.00
2013-7-14,89,78,68,75,70,66,93,78,57,30.12,30.01,9,1,10,0.01
2013-7-15,90,79,72,76,72,70,93,79,56,30.22,30.12,8,1,11,0.00
2013-7-16,93,82,70,75,72,69,95,75,52,30.29,30.20,4,0,7,0.00
2013-7-17,93,82,72,78,74,71,97,78,55,30.29,30.15,8,1,11,0.00
2013-7-18,89,79,72,79,74,70,96,87,68,30.16,30.02,8,1,10,0.56
2013-7-19,92,80,69,77,73,69,98,80,58,30.05,29.91,5,1,9,0.01
2013-7-20,92,81,72,77,73,71,96,80,57,29.94,29.81,8,1,12,0.34
2013-7-21,90,77,71,77,72,70,97,88,60,29.95,29.83,7,1,26,0.82
2013-7-22,85,76,71,76,73,70,97,90,73,29.88,29.80,3,1,8,1.47
2013-7-23,90,79,68,76,72,63,96,80,54,29.89,29.75,6,1,19,0.07
2013-7-24,83,73,65,70,66,62,97,79,60,29.95,29.78,11,2,12,0.03
2013-7-25,80,70,61,66,62,59,96,77,52,30.05,29.94,9,2,13,0.00
2013-7-26,83,71,58,68,63,57,98,78,53,30.05,29.95,4,1,8,0.00
2013-7-27,83,74,66,72,67,59,97,80,62,29.96,29.85,8,1,14,0.01
2013-7-28,80,67,53,61,56,51,97,70,43,30.07,29.96,4,1,9,0.00
2013-7-29,82,70,56,67,61,55,98,76,50,30.16,30.07,4,0,4,0.00
2013-7-30,74,69,63,70,66,61,96,91,74,30.16,30.04,4,0,7,0.37
2013-7-31,85,75,69,78,71,68,96,88,73,30.05,29.91,5,1,12,0.00
2013-8-1,84,74,64,70,68,63,98,82,57,30.02,29.94,8,1,11,0.00
2013-8-2,87,73,60,69,65,59,98,77,49,30.03,29.95,6,1,7,0.00
2013-8-3,81,74,70,75,71,67,97,89,80,30.03,29.93,5,0,7,0.23
2013-8-4,82,74,68,72,64,59,98,74,51,30.11,30.02,7,2,9,0.00
2013-8-5,81,70,60,69,64,59,96,82,52,30.07,29.93,4,0,7,0.13
2013-8-6,84,75,68,76,72,67,96,91,76,29.94,29.88,3,0,6,0.01
2013-8-7,86,78,72,77,74,71,97,89,75,29.94,29.86,7,1,8,0.01
2013-8-8,86,77,73,77,74,71,97,91,74,29.94,29.86,5,1,7,0.09
2013-8-9,80,75,73,73,72,72,97,93,81,30.01,29.91,1,0,4,0.11
2013-8-10,84,76,71,75,73,70,97,91,74,30.09,30.00,2,0,5,0.55
2013-8-11,87,79,72,76,74,72,98,86,69,30.10,30.02,4,0,9,0.00
2013-8-12,86,76,71,77,74,70,97,92,74,30.05,29.88,7,1,11,0.66
2013-8-13,82,75,68,73,70,63,97,85,64,30.01,29.89,7,2,12,0.00
2013-8-14,75,66,57,63,56,53,94,73,49,30.11,30.01,8,2,14,0.00
2013-8-15,79,66,55,62,57,52,92,74,54,30.10,30.01,8,1,11,0.00
2013-8-16,78,70,60,69,64,57,91,80,69,30.07,30.01,4,0,6,0.02
2013-8-17,80,70,66,71,67,64,97,90,69,30.12,30.03,3,0,8,1.70
2013-8-18,82,71,64,69,67,63,98,88,64,30.14,30.04,4,0,6,0.00
2013-8-19,86,73,63,73,68,62,98,84,58,30.11,30.01,5,0,7,0.01
2013-8-20,86,74,67,75,70,66,98,88,63,30.09,30.01,3,0,11,0.40
2013-8-21,90,78,68,78,72,67,98,84,54,30.12,30.03,4,0,7,0.01
2013-8-22,89,79,69,77,72,68,98,81,54,30.11,29.99,6,1,9,0.00
2013-8-23,90,76,69,77,72,69,98,90,61,30.05,29.98,6,0,10,0.11
2013-8-24,89,77,66,74,69,65,98,79,52,30.18,30.06,5,1,9,0.01
2013-8-25,88,77,66,74,69,64,96,79,58,30.27,30.17,5,1,10,0.00
2013-8-26,89,76,66,75,70,65,98,83,60,30.25,30.10,4,1,8,0.00
2013-8-27,88,77,66,76,71,65,98,84,65,30.11,30.01,4,0,7,0.00
2013-8-28,92,78,68,76,71,67,98,81,52,30.04,29.97,5,0,8,0.00
2013-8-29,93,81,69,78,74,68,98,81,56,30.00,29.91,7,1,10,0.00
2013-8-30,94,82,72,78,75,72,98,80,54,29.95,29.85,4,0,7,0.00
2013-8-31,94,83,72,79,75,71,97,79,57,29.88,29.75,6,1,9,0.00
2013-9-1,85,75,67,75,70,65,96,85,67,29.89,29.78,8,2,17,1.07
2013-9-2,88,77,68,77,72,67,98,86,64,29.89,29.80,5,1,8,0.00
2013-9-3,83,73,65,69,66,63,97,80,55,30.03,29.88,8,1,10,0.00
2013-9-4,82,70,59,66,62,58,98,78,50,30.13,30.02,5,1,10,0.00
2013-9-5,86,70,57,69,63,56,98,82,53,30.18,30.10,7,1,9,0.00
2013-9-6,89,70,60,69,65,60,98,85,48,30.15,30.04,3,0,6,0.00
2013-9-7,89,75,62,73,68,62,98,82,54,30.07,29.95,4,0,7,0.00
2013-9-8,90,78,67,77,71,67,98,81,52,29.98,29.89,3,0,6,0.00
2013-9-9,89,80,72,77,73,70,96,82,63,30.01,29.94,3,0,6,0.02
2013-9-10,89,79,72,77,73,69,96,83,67,30.12,30.01,7,1,10,0.00
2013-9-11,88,75,69,78,71,68,97,89,67,30.15,30.05,6,0,9,0.71
2013-9-12,87,76,68,78,72,67,98,88,67,30.04,29.89,8,1,13,0.03
2013-9-13,74,67,56,67,57,51,97,72,51,30.04,29.94,10,2,15,0.00
2013-9-14,73,59,47,55,51,46,96,77,50,30.13,30.03,5,1,10,0.00
2013-9-15,82,64,49,62,56,48,98,80,47,30.10,30.04,4,1,9,0.00
2013-9-16,76,67,58,68,63,57,97,86,74,30.16,30.07,7,1,8,0.00
2013-9-17,82,70,62,69,64,60,95,81,59,30.19,30.07,5,1,8,0.00
2013-9-18,82,72,64,73,68,63,97,87,73,30.13,30.02,7,1,9,0.00
2013-9-19,85,75,66,73,69,65,97,84,65,30.09,29.95,6,1,12,0.00
2013-9-20,82,73,68,73,69,65,97,87,68,29.97,29.78,5,1,10,1.74
2013-9-21,72,64,52,67,58,51,97,82,54,29.88,29.75,11,2,15,0.24
2013-9-22,73,61,50,57,53,49,97,78,49,29.97,29.87,8,1,10,0.00
2013-9-23,78,63,50,60,56,49,97,80,52,30.01,29.93,5,0,7,0.00
2013-9-24,81,68,56,68,61,55,97,80,54,29.97,29.81,7,1,10,0.01
2013-9-25,81,70,63,68,65,62,97,87,64,29.86,29.79,8,1,8,0.01
2013-9-26,81,68,58,68,62,57,98,84,56,30.01,29.85,7,1,8,0.00
2013-9-27,82,66,51,65,58,51,98,80,43,30.12,30.01,4,0,6,0.00
2013-9-28,79,67,58,63,60,57,97,79,50,30.15,30.04,7,1,13,0.00
2013-9-29,65,62,58,63,60,56,97,92,82,30.08,29.98,3,0,7,0.50
2013-9-30,75,67,63,65,63,61,97,87,70,30.01,29.94,6,1,10,0.00
2013-10-1,80,71,64,72,67,62,97,86,74,30.07,29.98,5,1,12,0.00
2013-10-2,78,71,66,72,69,65,98,94,83,30.10,30.02,5,0,6,0.43
2013-10-3,83,73,65,71,67,64,98,83,58,30.06,29.95,6,1,11,0.00
2013-10-4,84,74,64,74,69,63,97,85,69,30.06,29.98,6,1,9,0.00
2013-10-5,83,74,68,75,71,66,97,90,71,30.05,29.83,3,1,9,0.10
2013-10-6,72,60,48,70,58,47,98,92,79,29.94,29.81,4,1,12,2.12
2013-10-7,64,52,42,51,47,41,98,84,57,30.14,29.92,11,1,12,0.01
2013-10-8,69,55,44,52,48,43,98,79,48,30.20,30.10,8,1,10,0.00
2013-10-9,78,62,48,65,56,47,98,85,58,30.18,30.08,3,0,7,0.00
2013-10-10,62,59,58,61,58,57,97,97,95,30.11,30.02,0,0,0,0.00
2013-10-11,79,64,53,64,58,52,98,82,53,30.07,29.97,3,0,7,0.01
2013-10-12,79,65,53,66,60,52,98,85,60,30.11,30.00,4,0,7,0.00
2013-10-13,76,68,59,65,60,48,97,79,60,30.25,30.11,8,2,11,0.00
2013-10-14,75,64,53,64,56,47,95,76,63,30.25,30.09,5,1,8,0.00
2013-10-15,73,66,61,66,63,59,95,88,72,30.09,29.94,8,1,13,0.02
2013-10-16,66,59,52,64,57,51,97,93,87,30.00,29.92,9,1,9,0.16
2013-10-17,62,53,42,53,48,42,97,87,64,30.02,29.92,6,1,10,0.09
2013-10-18,67,52,39,53,46,38,98,84,52,30.09,29.96,3,0,7,0.00
2013-10-19,54,49,38,52,46,37,97,89,68,30.07,29.88,6,1,12,0.13
2013-10-20,63,47,34,48,41,33,97,82,50,30.12,30.02,7,1,11,0.01
2013-10-21,68,52,36,53,45,35,98,80,49,30.07,29.96,11,1,11,0.09
2013-10-22,59,50,40,49,42,36,96,76,46,30.07,29.86,4,1,15,0.07
2013-10-23,51,45,38,47,38,34,94,78,54,30.13,29.87,9,2,13,0.00
2013-10-24,50,42,29,41,36,28,96,81,55,30.39,30.12,9,1,14,0.00
2013-10-25,49,35,24,31,27,23,96,78,43,30.54,30.34,5,1,12,0.00
2013-10-26,58,43,26,44,36,25,96,77,54,30.34,30.07,13,1,13,0.00
2013-10-27,65,58,45,53,50,43,93,76,57,30.12,30.04,3,0,8,0.00
2013-10-28,67,58,49,58,55,48,97,89,68,30.25,30.07,3,0,6,0.03
2013-10-29,66,58,49,60,55,48,98,92,81,30.29,30.12,4,0,6,0.00
2013-10-30,77,67,61,67,62,59,97,84,69,30.16,29.99,5,1,14,0.16
2013-10-31,70,65,58,66,61,56,95,88,73,29.99,29.50,10,4,20,0.81
2013-11-1,69,56,45,57,48,44,97,77,45,29.83,29.64,4,1,12,0.01
2013-11-2,57,46,37,48,43,36,98,89,67,30.20,29.83,7,1,13,0.06
2013-11-3,56,42,30,44,36,30,97,81,44,30.34,30.19,4,0,7,0.01
2013-11-4,61,51,37,47,43,36,96,75,54,30.36,30.25,6,1,11,0.00
2013-11-5,68,58,51,49,45,41,74,62,48,30.36,30.18,6,2,9,0.00
2013-11-6,68,58,43,60,52,41,96,81,59,30.18,30.02,12,3,17,0.40
2013-11-7,52,41,30,41,33,28,96,77,41,30.36,30.18,9,1,12,0.00
2013-11-8,55,41,28,37,32,27,97,74,36,30.43,30.25,7,1,8,0.00
2013-11-9,62,48,34,38,35,30,92,61,38,30.26,30.15,17,2,17,0.00
2013-11-10,59,44,33,43,34,29,97,72,34,30.38,30.24,11,1,11,0.00
2013-11-11,66,48,30,44,34,28,96,64,25,30.33,30.16,6,1,16,0.00
2013-11-12,48,36,26,42,27,21,90,69,46,30.68,30.25,17,5,22,0.01
2013-11-13,42,31,22,26,22,19,92,72,39,30.73,30.45,4,1,7,0.00
2013-11-14,55,40,22,27,23,19,93,55,24,30.45,30.19,7,2,11,0.00
2013-11-15,51,45,33,49,37,23,94,73,51,30.21,30.07,4,0,9,0.02
2013-11-16,65,59,51,61,56,49,94,90,85,30.08,29.86,13,3,16,0.01
2013-11-17,71,64,48,67,61,42,97,90,68,29.92,29.61,14,4,23,2.47
2013-11-18,59,48,34,45,38,31,96,71,39,30.27,29.93,9,1,15,0.00
2013-11-19,50,41,33,32,29,27,93,66,41,30.34,30.23,10,2,10,0.00
2013-11-20,59,44,28,38,33,26,95,68,40,30.25,30.14,7,1,11,0.00
2013-11-21,66,55,45,55,48,36,96,77,61,30.26,30.16,7,1,12,0.09
2013-11-22,58,51,42,57,49,38,97,93,87,30.39,30.17,12,3,14,0.44
2013-11-23,44,36,23,38,26,11,87,68,26,30.64,30.38,13,5,18,0.00
2013-11-24,32,25,17,17,14,13,82,64,45,30.73,30.50,8,2,12,0.00
2013-11-25,42,33,28,32,24,16,95,71,45,30.50,30.21,6,1,11,0.00
2013-11-26,36,35,33,34,32,26,95,89,74,30.20,29.96,11,3,19,0.13
2013-11-27,33,24,15,24,14,10,90,66,45,30.41,30.07,17,4,17,0.00
2013-11-28,42,26,13,22,17,11,92,71,40,30.52,30.37,8,1,10,0.00
2013-11-29,49,32,20,32,25,18,94,77,45,30.63,30.48,4,0,5,0.00
2013-11-30,56,40,24,34,26,22,93,62,30,30.48,30.23,11,1,14,0.00
2013-12-1,55,49,45,41,36,30,78,63,55,30.23,29.95,4,0,7,0.00
2013-12-2,59,50,44,48,44,40,94,79,67,29.94,29.73,4,0,7,0.00
2013-12-3,62,54,47,54,51,45,96,89,73,29.80,29.71,5,1,9,0.00
2013-12-4,74,66,56,63,59,54,95,81,59,29.81,29.68,10,3,18,0.00
2013-12-5,69,46,32,65,42,30,94,89,81,30.18,29.79,13,4,17,0.23
2013-12-6,32,28,25,30,27,23,94,92,91,30.46,30.11,12,4,12,0.14
2013-12-7,26,22,18,24,20,15,92,90,87,30.63,30.42,7,2,10,0.00
2013-12-8,33,31,26,33,30,24,97,95,92,30.42,30.07,3,0,7,0.01
2013-12-9,33,30,26,32,26,21,96,87,81,30.30,30.13,10,2,11,0.00
2013-12-10,35,27,20,27,22,19,95,83,63,30.43,30.23,9,2,13,0.00
2013-12-11,40,30,18,32,24,16,95,80,65,30.62,30.42,7,2,11,0.01
2013-12-12,32,22,11,18,14,9,92,73,44,30.65,30.43,3,0,6,0.00
2013-12-13,43,32,17,34,23,15,92,71,46,30.42,30.01,5,1,8,0.24
2013-12-14,44,38,34,43,36,30,96,93,88,30.07,29.81,8,2,12,0.61
2013-12-15,33,31,27,31,27,25,94,86,81,30.25,30.07,9,2,15,0.00
2013-12-16,53,39,28,38,33,26,94,80,56,30.20,30.07,8,1,11,0.00
2013-12-17,47,36,24,38,32,23,96,84,56,30.31,30.10,8,1,16,0.00
2013-12-18,50,35,18,29,22,17,96,64,32,30.37,30.14,6,1,10,0.00
2013-12-19,61,50,34,49,41,28,87,70,58,30.18,29.97,9,3,18,0.00
2013-12-20,64,60,55,61,55,46,93,85,67,29.98,29.84,9,4,17,0.10
2013-12-21,74,66,58,67,62,57,97,87,76,29.85,29.48,17,4,22,3.09
2013-12-22,61,48,36,60,46,33,96,91,82,30.19,29.55,9,3,15,0.07
2013-12-23,36,31,26,32,26,20,91,81,72,30.50,30.19,8,3,13,0.00
2013-12-24,27,22,17,21,13,8,84,69,50,30.64,30.48,9,2,13,0.00
2013-12-25,44,30,16,26,20,14,92,67,39,30.48,30.31,5,1,9,0.00
2013-12-26,42,32,23,31,26,21,96,82,51,30.46,30.32,5,0,6,0.00
2013-12-27,52,34,20,32,27,18,96,78,45,30.50,30.37,5,1,9,0.00
2013-12-28,46,36,24,38,31,23,95,83,62,30.37,29.99,2,0,5,0.14
2013-12-29,51,40,28,43,36,25,97,88,73,30.20,29.93,11,2,12,0.23
2013-12-30,30,26,20,24,21,18,94,82,71,30.33,30.19,7,1,8,0.00
2013-12-31,41,28,18,27,23,17,94,81,57,30.47,30.32,4,0,7,0.00
2014-1-1,49,36,22,37,28,20,95,74,45,30.34,29.97,5,1,10,0.07
2014-1-2,40,27,17,39,24,12,96,86,73,30.44,29.88,14,4,20,0.10